Tracking 17857 objects as of 30-September-2016
HD Live streaming from Space Station
objects crossing your sky now

THORAD AGENA D DEB

Track THORAD AGENA D DEB now!
10-day predictions


NORAD ID: 4177
Int'l Code: 1969-082AV
Perigee: 854.5 km
Apogee: 1,029.4 km
Inclination: 70.1 °
Period: 103.7 minutes
Semi major axis: 7312 km
RCS: 0.0743 m2 (small)
Launch date: September 30, 1969
Source: United States (US)
Launch site: AIR FORCE WESTERN TEST RANGE (AFWTR)

Note: This is SATELLITE DEBRIS
Your satellite tracking list
Your tracking list is empty





NASA's NSSDC Master Catalog

Two Line Element Set (TLE):
1  4177U 69082AV  16272.94423269 +.00000828 +00000-0 +69482-3 0  9991
2  4177 070.0709 138.2538 0119588 292.9397 065.9121 13.88233222363287
Source of the keplerian elements: AFSPC

N2YO: 1000